Warning: Javascript must be enabled to use all the features on this page!


Page Loading - Please Wait...

* We've detected you're using a mobile device. Find our Next Generation Station Page here.
Click to hideNews Bulletins

Peak Streamflow for the Nation

USGS 07119500 APISHAPA RIVER NEAR FOWLER, CO

Otero County, Colorado
Hydrologic Unit Code 11020007
Latitude  38°06'30.6", Longitude 103°58'03.4" NAD83
Drainage area 1,074  square miles
Gage datum 4,290 feet above NGVD29
Output formats
Table
Graph
Tab-separated file
peakfq (watstore) format
Reselect output format
Water
Year
Date Gage
Height
(feet)
Stream-
flow
(cfs)
1922 1922-08-02 13.78 6,430
1923 1923-08-22   83,0003
1924 1923-10-06 5.69 1,100
1925 1925-07-30 8.30 5,030
1939 1939-08-20 8.506 4,700
1940 1940-09-10 8.306 5,320
1941 1941-08-27 7.85 4,060
1942 1942-08-15 16.23 14,700
1943 1943-08-17 7.43 2,840
1944 1944-07-19 7.65 3,180
1945 1945-08-15 13.95 12,000
1946 1946-08-29 10.51 6,910
1947 1947-08-25 9.69 5,550
1948 1948-06-20 9.22 5,900
1949 1949-06-05 9.80 5,700
1950 1950-07-26 13.75 6,750
1951 1951-07-31 17.70 11,100
1952 1952-08-05 8.43 2,520
1953 1953-08-17 12.15 5,310
1954 1954-08-06 16.90 14,800
1955 1955-05-19 16.70 17,000
1956 1956-07-23 10.40 7,160
1957 1957-06-12 8.95 5,320
1958 1958-07-06 15.55 12,100
1959 1959-08-16 4.63 1,210
1960 1960-07-13 15.50 12,000
1961 1961-08-03 7.00 3,620
1962 1962-07-24 9.04 5,240
1963 1963-08-13 8.48 2,730
1964 1964-05-27 5.98 1,460
1965 1965-06-17 16.45 11,400
1966 1966-07-24 12.11 7,750
1967 1967-05-27 6.92 3,810
1968 1968-08-10 5.10 1,580
1969 1969-06-18 5.31 2,030
1970 1970-07-24 4.75 1,430
1971 1971-06-09 4.13 838
1972 1972-08-04 9.31 3,710
1973 1973-05-26 3.15 328
1974 1974-02-18 1.89 91.0
1975 1975-07-21 6.04 1,420
1976 1976-08-02 8.10 2,420
1977 1977-07-22 11.45 4,720
1978 1978-07-10 17.60 18,300
1979 1979-07-31 8.50 2,640
1980 1980-05-16 3.46 524
1981 1981-08-03 10.80 4,190
1982 1982-08-11 6.34 1,650
1983 1983-05-20 2.55 356
1984 1984-05-13 4.81 1,270
1985 1985-07-29 3.31 689
1986 1986-08-23 10.436 3,640
1987 1987-09-08 8.14 1,860
1988 1988-07-10 3.25 108
1989 1989-07-14 5.92 752
1990 1990-08-06 15.46 9,350
1991 1991-07-02 13.34 5,620
1992 1992-06-08 6.76 825
1993 1993-05-26 4.17 170
1994 1994-05-17 3.67 106
1995 1995-07-19 13.56 5,550
1996 1996-07-27 4.55 284
1997 1997-07-29 5.00 391
1998 1998-08-04 8.30 1,570
1999 1999-06-24 7.84 1,350
2000 2000-08-18 3.72 132
2001 2001-08-11 3.96 167
2002 2002-08-30 7.92 1,370
2003 2003-07-29 13.42 3,080
2004 2004-07-18 11.37 2,050
2005 2005-04-06 7.16 674
2006 2006-08-20 11.95 2,340
2007 2007-08-30 12.20 2,440
2008 2008-08-11 8.24 916
2009 2009-07-22 8.68 1,040
2010 2010-08-10 8.27 924
2011 2011-08-03 8.406 806
2012 2011-11-15 2.60 66.0
2013 2013-08-04 16.96 4,690
2014 2014-07-15 14.32 3,120
2015 2015-06-12 10.89 1,600
2016 2016-05-31 6.11 492
2017 2017-05-11 14.14 2,730
2018 2018-07-26 11.00 1,2202
2019 2019-07-22 8.68 758
2020 2020-07-29 9.90 919
2021 2021-05-23 12.80 1,980
?
  Peak Gage-Height Qualification Codes.
?
  Peak Streamflow Qualification Codes.